Blair, NE

7:42 AM CDT on May 24, 2018 (GMT -0500)
Blair Municipal

Weather History for KBTA - November, 2011

Change the Weather History Date:

Thursday, November 10, 2011

  Actual Average (KOMA) Record (KOMA)
Temperature  
Mean Temperature 38 °F -  
Max Temperature 46 °F 48 °F 78 °F (1927)
Min Temperature 30 °F 28 °F 2 °F (1986)
Degree Days  
Heating Degree Days 27    
Moisture  
Dew Point 18 °F    
Average Humidity 49    
Maximum Humidity 64    
Minimum Humidity 27    
Precipitation  
Precipitation 0.00 in - - ()
Sea Level Pressure  
Sea Level Pressure 30.19 in    
Wind  
Wind Speed 9 mph (West)    
Max Wind Speed 16 mph    
Max Gust Speed 22 mph    
Visibility 10 miles    
Events      
Averages and records for this station are not official NWS values.
T = Trace of Precipitation, MM = Missing Value Source: NWS Daily Summary

Daily Weather History Graph

Daily Weather History Graph

Search for Another Location

Airport or City:

Astronomy

Nov. 10, 2011 Rise Set
Actual Time 7:06 AM CST 5:09 PM CST
Civil Twilight 6:37 AM CST 5:38 PM CST
Nautical Twilight 6:04 AM CST 6:12 PM CST
Astronomical Twilight 5:31 AM CST 6:44 PM CST
Moon 4:57 PM CST (11/10) 7:00 AM CST (11/10)
Length of Visible Light 11h 01m
Length of Day
10h 03m
Full, 100% of the Moon is Illuminated
Nov 10
Full
Nov 10
Full
Nov 18
Last Quarter
Nov 25
New
Dec 2
First Quarter

Hourly Weather History & Observations

Time (CST) Temp. Windchill Dew Point Humidity Pressure Visibility Wind Dir Wind Speed Gust Speed Precip Events Conditions
12:15 AM 32.0 °F 26.4 °F 19.4 °F 60% 30.24 in 10.0 mi West 5.8 mph - N/A   Clear
12:35 AM 32.0 °F 25.6 °F 21.2 °F 64% 30.24 in 10.0 mi West 6.9 mph - N/A   Clear
1:15 AM 32.0 °F 25.6 °F 21.2 °F 64% 30.23 in 10.0 mi West 6.9 mph - N/A   Clear
1:35 AM 32.0 °F 24.8 °F 19.4 °F 60% 30.23 in 10.0 mi West 8.1 mph - N/A   Clear
1:55 AM 32.0 °F 24.2 °F 21.2 °F 64% 30.24 in 10.0 mi West 9.2 mph - N/A   Clear
2:15 AM 32.0 °F 23.6 °F 19.4 °F 60% 30.24 in 10.0 mi WNW 10.4 mph - N/A   Clear
2:35 AM 32.0 °F 24.2 °F 19.4 °F 60% 30.23 in 10.0 mi WNW 9.2 mph - N/A   Clear
3:15 AM 32.0 °F 24.2 °F 19.4 °F 60% 30.23 in 10.0 mi West 9.2 mph - N/A   Clear
3:35 AM 30.2 °F 21.9 °F 19.4 °F 64% 30.23 in 10.0 mi West 9.2 mph - N/A   Clear
3:55 AM 30.2 °F 21.3 °F 19.4 °F 64% 30.23 in 10.0 mi West 10.4 mph - N/A   Clear
4:15 AM 30.2 °F 20.8 °F 19.4 °F 64% 30.23 in 10.0 mi West 11.5 mph - N/A   Clear
4:35 AM 30.2 °F 21.9 °F 19.4 °F 64% 30.23 in 10.0 mi West 9.2 mph - N/A   Clear
4:55 AM 30.2 °F 21.9 °F 19.4 °F 64% 30.23 in 10.0 mi West 9.2 mph - N/A   Clear
5:15 AM 30.2 °F 20.8 °F 19.4 °F 64% 30.23 in 10.0 mi West 11.5 mph - N/A   Clear
5:55 AM 30.2 °F 21.9 °F 19.4 °F 64% 30.24 in 10.0 mi WNW 9.2 mph - N/A   Clear
6:15 AM 30.2 °F 21.3 °F 19.4 °F 64% 30.24 in 10.0 mi West 10.4 mph - N/A   Clear
6:35 AM 30.2 °F 20.8 °F 19.4 °F 64% 30.24 in 10.0 mi West 11.5 mph 17.3 mph N/A   Clear
7:15 AM 30.2 °F 21.3 °F 19.4 °F 64% 30.25 in 10.0 mi West 10.4 mph 17.3 mph N/A   Clear
7:35 AM 30.2 °F 20.8 °F 19.4 °F 64% 30.26 in 10.0 mi West 11.5 mph 17.3 mph N/A   Clear
7:55 AM 30.2 °F 21.9 °F 19.4 °F 64% 30.26 in 10.0 mi WNW 9.2 mph - N/A   Clear
8:35 AM 32.0 °F 22.5 °F 19.4 °F 60% 30.27 in 10.0 mi West 12.7 mph 18.4 mph N/A   Clear
8:55 AM 32.0 °F 21.2 °F 19.4 °F 60% 30.27 in 10.0 mi WNW 16.1 mph 20.7 mph N/A   Clear
9:35 AM 33.8 °F 24.8 °F 21.2 °F 60% 30.26 in 10.0 mi WNW 12.7 mph 18.4 mph N/A   Clear
9:55 AM 35.6 °F 26.6 °F 21.2 °F 56% 30.26 in 10.0 mi WNW 13.8 mph - N/A   Clear
10:15 AM 35.6 °F 26.6 °F 21.2 °F 56% 30.26 in 10.0 mi WNW 13.8 mph 19.6 mph N/A   Clear
10:35 AM 37.4 °F 30.3 °F 21.2 °F 52% 30.25 in 10.0 mi WNW 10.4 mph 18.4 mph N/A   Clear
10:55 AM 37.4 °F 29.3 °F 19.4 °F 48% 30.26 in 10.0 mi NW 12.7 mph 19.6 mph N/A   Clear
11:15 AM 37.4 °F 29.8 °F 19.4 °F 48% 30.25 in 10.0 mi NW 11.5 mph 18.4 mph N/A   Clear
11:35 AM 41.0 °F 34.7 °F 17.6 °F 39% 30.24 in 10.0 mi WNW 10.4 mph - N/A   Clear
11:55 AM 41.0 °F 33.9 °F 17.6 °F 39% 30.24 in 10.0 mi NW 12.7 mph 18.4 mph N/A   Clear
12:15 PM 42.8 °F 35.8 °F 15.8 °F 34% 30.23 in 10.0 mi WNW 13.8 mph 19.6 mph N/A   Clear
12:35 PM 42.8 °F 36.6 °F 15.8 °F 34% 30.22 in 10.0 mi WNW 11.5 mph 17.3 mph N/A   Clear
12:55 PM 42.8 °F 35.8 °F 10.4 °F 27% 30.21 in 10.0 mi NW 13.8 mph 21.9 mph N/A   Clear
1:15 PM 44.6 °F 38.8 °F 14.0 °F 29% 30.20 in 10.0 mi WNW 11.5 mph 16.1 mph N/A   Clear
1:35 PM 44.6 °F 39.2 °F 14.0 °F 29% 30.19 in 10.0 mi NW 10.4 mph 17.3 mph N/A   Clear
1:55 PM 44.6 °F 39.2 °F 14.0 °F 29% 30.18 in 10.0 mi WNW 10.4 mph 16.1 mph N/A   Clear
2:15 PM 44.6 °F 39.2 °F 14.0 °F 29% 30.17 in 10.0 mi NW 10.4 mph 18.4 mph N/A   Clear
2:35 PM 44.6 °F 38.8 °F 14.0 °F 29% 30.17 in 10.0 mi WNW 11.5 mph 16.1 mph N/A   Clear
2:55 PM 46.4 °F 42.4 °F 14.0 °F 27% 30.16 in 10.0 mi West 8.1 mph - N/A   Clear
3:15 PM 46.4 °F 42.4 °F 15.8 °F 29% 30.16 in 10.0 mi West 8.1 mph - N/A   Clear
3:35 PM 46.4 °F 41.5 °F 14.0 °F 27% 30.16 in 10.0 mi WNW 10.4 mph 16.1 mph N/A   Clear
3:55 PM 44.6 °F 40.2 °F 14.0 °F 29% 30.15 in 10.0 mi WNW 8.1 mph - N/A   Clear
4:15 PM 44.6 °F 40.2 °F 14.0 °F 29% 30.13 in 10.0 mi WNW 8.1 mph - N/A   Clear
4:35 PM 44.6 °F 42.2 °F 14.0 °F 29% 30.13 in 10.0 mi West 4.6 mph - N/A   Clear
4:55 PM 42.8 °F - 14.0 °F 31% 30.12 in 10.0 mi Calm Calm - N/A   Clear
5:15 PM 42.8 °F - 14.0 °F 31% 30.11 in 10.0 mi Calm Calm - N/A   Clear
5:35 PM 41.0 °F - 14.0 °F 33% 30.10 in 10.0 mi Calm Calm - N/A   Clear
5:55 PM 41.0 °F - 14.0 °F 33% 30.10 in 10.0 mi Calm Calm - N/A   Clear
6:15 PM 37.4 °F 34.9 °F 15.8 °F 41% 30.09 in 10.0 mi SSE 3.5 mph - N/A   Clear
6:35 PM 37.4 °F 34.9 °F 17.6 °F 45% 30.09 in 10.0 mi SSE 3.5 mph - N/A   Clear
6:55 PM 37.4 °F - 17.6 °F 45% 30.08 in 10.0 mi Calm Calm - N/A   Clear
7:15 PM 37.4 °F 34.9 °F 17.6 °F 45% 30.08 in 10.0 mi SE 3.5 mph - N/A   Clear
7:35 PM 35.6 °F 31.7 °F 17.6 °F 48% 30.07 in 10.0 mi SSE 4.6 mph - N/A   Clear
7:55 PM 35.6 °F 30.7 °F 17.6 °F 48% 30.06 in 10.0 mi SSE 5.8 mph - N/A   Clear
8:15 PM 33.8 °F 29.6 °F 19.4 °F 56% 30.05 in 10.0 mi SSE 4.6 mph - N/A   Clear
8:35 PM 32.0 °F 26.4 °F 19.4 °F 60% 30.06 in 10.0 mi SSE 5.8 mph - N/A   Clear
8:55 PM 33.8 °F 28.6 °F 21.2 °F 60% 30.05 in 10.0 mi SSE 5.8 mph - N/A   Clear
9:15 PM 32.0 °F 26.4 °F 21.2 °F 64% 30.05 in 10.0 mi SSE 5.8 mph - N/A   Clear
9:35 PM 33.8 °F 27.0 °F 21.2 °F 60% 30.03 in 10.0 mi SSE 8.1 mph - N/A   Clear
9:55 PM 33.8 °F 27.0 °F 21.2 °F 60% 30.03 in 10.0 mi SSE 8.1 mph - N/A   Clear
10:15 PM 33.8 °F 27.0 °F 21.2 °F 60% 30.02 in 10.0 mi SSE 8.1 mph - N/A   Clear
10:35 PM 35.6 °F 28.6 °F 21.2 °F 56% 30.00 in 10.0 mi SSE 9.2 mph - N/A   Clear
10:55 PM 33.8 °F 26.4 °F 21.2 °F 60% 29.98 in 10.0 mi SSE 9.2 mph - N/A   Clear
11:15 PM 33.8 °F 26.4 °F 23.0 °F 65% 29.98 in 10.0 mi SSE 9.2 mph - N/A   Clear
11:35 PM 35.6 °F 28.6 °F 23.0 °F 60% 29.97 in 10.0 mi SSE 9.2 mph - N/A   Clear